User: anonymous   Login
Location: Unspecified
(0.0000°N, 0.0000°E)
Time: 08:59:39
(UTC+00:00)
Language:

PROBA 2 - Orbit

View from above orbital plane
View from above orbital plane
View from above satellite
View from above satellite

Ground track
Ground track

The orbit data is extracted from the following two-line orbital elements,

1 36037U 09059B   18019.58410920 +.00000002 +00000-0 +11211-4 0  9992
2 36037 098.2435 214.5421 0014027 034.4316 325.7787 14.53026803435469
Epoch (UTC): 19 January 2018 14:01:07
Eccentricity: 0.0014027
inclination: 98.2435°
perigee height: 706 km
apogee height: 726 km
right ascension of ascending node: 214.5421°
argument of perigee: 34.4316°
revolutions per day: 14.53026803
mean anomaly at epoch: 325.7787°
orbit number at epoch: 43546

The dashed part of the orbit path shows where the satellite is in the earth's shadow,  

DLR